www.pogodaiklimat.ru
ПОГОДА в Коконао

Архив погоды в Коконао (Индонезия)

Время
(UTC), дата
03 29.06
06 29.06
09 29.06
12 29.06
15 29.06
18 29.06
21 29.06
00 30.06
03 30.06
06 30.06
09 30.06
12 30.06
15 30.06
18 30.06
21 30.06
00 1.07
03 1.07
06 1.07
09 1.07
12 1.07
15 1.07
18 1.07
21 1.07
00 2.07
03 2.07
06 2.07
09 2.07
12 2.07
15 2.07
18 2.07
21 2.07
00 3.07
03 3.07
06 3.07
09 3.07
12 3.07
15 3.07
18 3.07
21 3.07
00 4.07
03 4.07
06 4.07
09 4.07
12 4.07
15 4.07
18 4.07
21 4.07
00 5.07
03 5.07
06 5.07
09 5.07
12 5.07
15 5.07
18 5.07
21 5.07
00 6.07
Ветер
(напр.,м/с)
Видим. Явления Облачность Т
(С)
Тd
(С)
f
(%)
Тe
(С)
Тes
(С)
Комфортность P
(гПа)
Po
(гПа)
Тmin
(С)
Tmax
(С)
R
(мм)
R24
(мм)
S
(см)
ЮЗ 2 10 км 9/5 500 м
[Cu hum Ac trans Ci sp]
+30.5 +24.1 69 +42 +47 опасность
перегрева
1007.8 1003.3
З 2 10 км 8/4 480 м
[Cu hum As trans Ci fib]
+31.9 +24.0 63 +44 +47 опасность
перегрева
1005.9 1001.5
Ю 1 10 км в посл. час ливневой дождь 8/6
[Cb calv As trans Ci fib]
+27.5 +24.4 83 +39 +39 очень
душно
1007.7 1002.9 0.6
СЗ 2 5000 м слаб. ливневой дождь, в посл. час гроза 10/8 400 м
[Cb cap Ac cuf Ci sp]
+25.5 +24.4 94 +36 +36 очень
душно
1011.2 1006.4 +32.0 3
штиль 0 7000 м {дождь} 9/5 500 м
[Sc Ac As Ci sp]
+24.2 +23.5 96 +33 +33 очень
душно
1010.5 1005.7 2
СЗ 1 7000 м {дождь} 8/3 540 м
[Sc Ac As Ci sp]
+23.6 +22.9 96 +31 +31 очень
душно
1009.2 1004.4 2
штиль 0 9000 м 5/1 540 м
[Sc Ac trans Ci sp]
+23.0 +22.7 98 +32 +32 очень
душно
1009.0 1004.2
штиль 0 10 км 3/0
[Ac trans Ci sp]
+27.6 +23.7 79 +38 +49 очень
душно
1010.4 1005.9 +23.0 6
ЮЗ 2 10 км 4/4 450 м
[Cu hum]
+30.9 +23.1 63 +41 +51 опасность
перегрева
1009.0 1004.5
Ю 2 10 км 6/5 450 м
[Cu hum Ci sp]
+30.8 +24.6 70 +44 +47 опасность
перегрева
1006.8 1002.3
СВ 2 8000 м слаб. ливневой дождь, в посл. час гроза 10/9
[Cb cap]
+27.3 +25.4 89 +40 +40 очень
душно
1008.2 1003.7 0.2
ЮВ 1 7000 м {дождь} 10/5 400 м
[Sc As op Ci sp]
+24.6 +23.8 95 +33 +33 очень
душно
1010.8 1006.2 +32.8 3
В 1 7000 м 9/4 420 м
[Sc As op Ci sp]
+24.5 +24.1 98 +34 +34 очень
душно
1010.7 1006.1
З 1 7000 м 9/4 450 м
[Sc As op Ci sp]
+24.0 +23.3 96 +32 +32 очень
душно
1009.6 1005.0
ЮЗ 1 8000 м 8/1 500 м
[Sc Ac trans Ci sp]
+23.9 +23.3 96 +32 +32 очень
душно
1010.2 1005.6
штиль 0 10 км 9/4 450 м
[Sc Ac trans Ci sp]
+26.2 +24.7 91 +37 +41 очень
душно
1011.6 1007.0 +23.8 3
ЮЗ 1 10 км 4/4 480 м
[Sc Ac trans Ci sp]
+30.9 +23.8 66 +42 +54 опасность
перегрева
1009.8 1005.3
Ю 4 10 км 8/5 420 м
[Cu hum Ac trans Ci sp]
+30.8 +24.4 69 +43 +45 опасность
перегрева
1007.7 1003.3
СВ 3 5000 м слаб. дождь {гроза} 10/8
[Cb cap Ac trans]
+26.9 +25.7 93 +40 +40 очень
душно
1009.1 1004.6 1
штиль 0 7000 м {дождь} 10/8
[Cb cap As op]
+25.4 +24.3 94 +35 +35 очень
душно
1011.7 1007.1 +32.5 0.1
З 1 3000 м слаб. дождь 10/10
[Cb calv]
+24.1 +23.8 98 +33 +33 очень
душно
1011.0 1006.4 24
СВ 1 7000 м {дождь} 9/6 420 м
[Sc As op Ci sp]
+23.8 +23.7 99 +32 +32 очень
душно
1010.2 1005.6 3
З 2 5000 м слаб. морось 10/6 360 м
[St As op Ci sp]
+24.1 +24.0 99 +33 +33 очень
душно
1010.4 1005.8 0.1
С 1 8000 м {морось} 9/6 400 м
[Sc As op Ci sp]
+25.6 +24.2 92 +35 +38 очень
душно
1011.9 1006.9 +23.7 0.0 28
З 1 9000 м 8/5 420 м
[Sc diur, vesp Ac trans Ci sp]
+28.4 +24.6 80 +40 +47 очень
душно
1009.8 1005.0
ЮВ 2 8000 м осадки на расстоянии 10/10 300 м
[Cb calv]
+27.9 +24.9 84 +40 +40 очень
душно
1007.0 1002.5
Ю 2 5000 м слаб. дождь 10/9 300 м
[Cb cap As op]
+25.2 +24.5 96 +35 +35 очень
душно
1008.2 1003.6 6
З 1 5000 м в посл. час дождь 10/8 360 м
[Cb cap As op]
+24.8 +24.3 97 +34 +34 очень
душно
1010.4 1005.8 +29.6 0.7
штиль 0 5000 м слаб. дождь 10/10 400 м
[Sc]
+24.4 +24.1 98 +34 +34 очень
душно
1009.9 1005.3 3
штиль 0 5000 м {дождь} 10/5 400 м
[Sc Ac trans Ci sp]
+24.2 +23.7 97 +33 +33 очень
душно
1008.6 1004.1 0.0
штиль 0 8000 м 9/6 360 м
[Cb calv Ac trans Ci sp]
+23.6 +23.3 98 +32 +32 очень
душно
1008.5 1003.9
штиль 0 10 км 8/3 450 м
[Sc Ac trans Ci sp]
+26.9 +23.7 83 +37 +43 очень
душно
1009.6 1005.1 +23.5 9
З 4 10 км 8/5 480 м
[Cu hum Ac trans Ci sp]
+30.6 +25.2 73 +44 +48 опасность
перегрева
1008.2 1003.7
СВ 3 5000 м слаб. дождь {ливн. дождь} 9/6
[Cb cap Ac trans Ci sp]
+28.7 +24.9 80 +41 +43 опасность
перегрева
1006.4 1001.8 0.4
В 3 3000 м гроза, ливневой дождь 10/9
[Cb cap Ac inh]
+25.3 +24.9 98 +36 +36 очень
душно
1008.2 1003.4 27
ЮЗ 2 3000 м дождь {гроза} 10/10 300 м
[Cb cap]
+23.9 +23.8 99 +32 +32 очень
душно
1010.3 1005.7 +31.2 78
З 2 5000 м слаб. дождь {гроза} 10/6 300 м
[Cb cap As op]
+23.7 +22.8 95 +31 +31 очень
душно
1010.4 1005.8 5
СЗ 1 6000 м {дождь} 9/4 360 м
[Cb cap As op]
+23.5 +23.4 99 +32 +32 очень
душно
1008.4 1003.8 0.5
Ю 1 6000 м мгла 10/8 300 м
[Cb cap As op]
+23.4 +23.3 99 +33 +33 очень
душно
1008.3 1003.7
З 4 9000 м 8/5 360 м
[Sc Ac trans Ci sp]
+26.7 +24.4 87 +37 +39 очень
душно
1010.2 1005.4 +23.2 111
ЮЗ 5 8000 м осадки на расстоянии 9/6 360 м
[Cb calv Ac trans Ci sp]
+29.0 +24.9 79 +42 +44 опасность
перегрева
1009.3 1004.5
З 4 8000 м слаб. дождь 9/8 300 м
[Cb calv Ac trans Ci sp]
+26.4 +25.6 95 +39 +39 очень
душно
1007.8 1003.3 5
СЗ 2 8000 м {дождь} 10/8
[Cb calv Ac As]
+25.1 +23.4 90 +34 +34 очень
душно
1009.5 1004.9 0.0
СЗ 3 8000 м {дождь} 10/8 420 м
[Sc Ac As]
+24.6 +23.8 95 +33 +33 очень
душно
1011.1 1006.5 +30.0 0.0
З 2 8000 м 10/8
[Cb cap Ac As]
+24.1 +23.4 96 +32 +32 очень
душно
1010.3 1005.7
СЗ 2 4000 м слаб. дождь 10/9
[Cb cap Ac As]
+23.8 +23.4 98 +32 +32 очень
душно
1009.8 1005.2 4
З 2 3000 м дождь 10/8
[Cb cap Ac inh]
+23.5 +23.4 99 +32 +32 очень
душно
1010.5 1005.6 17
З 3 4500 м слаб. дождь 10/9
[Cb cap Ac cuf]
+25.0 +24.3 96 +35 +35 очень
душно
1011.5 1006.7 +23.4 1
ЮВ 3 7000 м осадки на расстоянии {дождь, морось} 10/9
[Cb cap Ac cuf]
+25.4 +24.4 94 +35 +36 очень
душно
1010.5 1005.7 0.5
ЮЗ 1 6000 м осадки на расстоянии {дождь, морось} 10/9
[Cb cap As op]
+25.8 +24.7 94 +37 +37 очень
душно
1008.8 1004.2 0.8
штиль 0 5000 м 10/9 400 м
[Frnb As op Ci sp]
+25.6 +24.6 94 +36 +36 очень
душно
1009.6 1005.0
Ю 2 4000 м слаб. дождь 10/8 360 м
[Frnb As op]
+24.5 +24.2 98 +34 +34 очень
душно
1011.4 1006.8 +26.1 2
СЗ 2 5000 м слаб. дождь 10/6 360 м
[Frnb As op]
+24.2 +23.9 98 +33 +33 очень
душно
1011.3 1006.7 1
З 2 4000 м слаб. дождь 10/6 300 м
[Frnb As op]
+24.0 +24.0 100 +33 +33 очень
душно
1010.5 1005.9 2
З 2 5000 м слаб. морось {дождь} 10/9 270 м
[Frnb As op]
+23.5 +23.5 100 +32 +32 очень
душно
1011.3 1006.7 1
З 2 800 м слаб. дождь {морось} 10/10
[Cb cap]
+23.9 +23.8 99 +32 +32 очень
душно
1012.9 1008.3 +23.5 2
Местоположение метеостанции Коконао (Индонезия): широта -5.00 долгота 137.45 высота над уровнем моря 3 м.
В архиве по умолчанию представлена погода в Коконао за последнюю неделю. Архивные данные за месяц целиком и за предыдущие месяцы, начиная с января 2011 года, Вы можете получить, выбрав интересующий диапазон дат из раскрывающегося списка и нажав кнопку "Найти!".
*Определитесь, кто Вы:
Внимание! Время в таблицах - всемирное. Для получения местного времени необходимо прибавить поправку, которая равна 9 ч.
Смотрите также архив погоды в соседних городах и на ближайших метеорологических станциях:
Партнеры нашего сайта:      
Пояснения к столбцам:
  • Ветер - указаны скорость ветра в м/с - средняя за 10 мин, порывы в срок и между сроками (в фигурных скобках) и направление, откуда дует ветер: С - северный,
  • СВ - северо-восточный, В - восточный, ЮВ - юго-восточный, Ю - южный, ЮЗ - юго-западный, З - западный, СЗ - северо-западный.
  • Видимость - горизонтальная дальность видимости в метрах или километрах. При видимости от 1 до 10 км при отсутствии осадков обычно наблюдается дымка, при ухудшении видимости до 1 км и менее - туман. В сухую погоду видимость может ухудшаться дымом, пылью или мглою.
  • Явления - указаны атмосферные явления, наблюдавшиеся в срок или в последний час перед сроком; фигурными скобками обозначены явления, наблюдавшиеся между сроками (за 1-3 часа до срока); квадратными скобками обозначены град или гололедные отложения с указанием их диаметра в мм.
  • Облачность - указаны через наклонную черту общая и нижняя облачность в баллах и высота нижней границы облаков в метрах; квадратными скобками обозначены формы облаков: Ci - перистые, Cs - перисто-слоистые, Cc - перисто-кучевые, Ac - высококучевые, As - высокослоистые, Sc - слоисто-кучевые, Ns - слоисто-дождевые, Cu - кучевые, Cb - кучево-дождевые. Подробнее классификацию облаков см. в Атласе облаков (PDF).
  • T - Температура воздуха - температура, измеренная на высоте 2 м над землей.
  • Td - Температура точки росы - температура, при понижении до которой содержащийся в воздухе водяной пар достигнет насыщения.
  • f - Относительная влажность воздуха - влажноcть воздуха, измеренная на высоте 2 м над землей.
  • Te - Эффективная температура - температура, которую ощущает одетый по сезону человек в тени. Характеристика душности погоды. При расчете учитывается влияние влажности воздуха и скорости ветра на теплоощущения человека.
  • Tes - Эффективная температура на солнце - температура, которую ощущает человек, с поправкой на солнечный нагрев. Характеристика знойности погоды. Зависит от высоты солнца над горизонтом, облачности и скорости ветра. Ночью, в пасмурную погоду, а также при ветре 12 м/с и более поправка равна нулю.
  • P - Атмосферное давление - приведенное к уровню моря атмосферное давление.
  • Po - Атмосферное давление - измеренное на уровне метеостанции атмосферное давление.
  • Tmin - Минимальная температура - минимум температуры воздуха на высоте 2 м над землей.
  • Tmax - Максимальная температура - максимум температуры воздуха на высоте 2 м над землей.
  • R - Количество осадков - Количество выпавших осадков за период времени, мм. При наведении курсора мыши на число - период времени, за который выпало указанное количество осадков.
  • R24 - Количество осадков - Количество выпавших осадков за 24 часа, мм.
  • S - Снежный покров - Высота снежного покрова, см. При наведении курсора мыши на число - состояние снежного покрова и степень покрытия местности в баллах.